Regional Weather Roundup
Issued by NWS

Home | Current Version | Previous Version | Text Only | Print | Product List | Glossary On
Versions: 1 2 3 4 5 6 7 8 9 10 11 12 13 14 15 16 17 18 19 20 21 22 23 24 25 26 27 28 29 30 31 32 33 34 35 36 37 38 39 40 41 42 43 44 45 46 47 48 49 50
000
ASUS44 KLUB 260801
RWRTX
WEST TEXAS WEATHER ROUNDUP
NATIONAL WEATHER SERVICE LUBBOCK TX
300 AM CDT SUN MAR 26 2017

NOTE: "FAIR" INDICATES FEW OR NO CLOUDS BELOW 12,000 FEET WITH NO
SIGNIFICANT WEATHER AND/OR OBSTRUCTIONS TO VISIBILITY.

TXZ004-006>008-010-012-014-016-OKZ002-260900-
TEXAS PANHANDLE/OKLAHOMA PANHANDLE

CITY           SKY/WX    TMP DP  RH WIND       PRES   REMARKS
AMARILLO       CLEAR     47  31  53 S16       29.81F
BORGER         CLEAR     54  31  41 SE13G20   29.80F
CANADIAN       CLEAR     44  43  95 SE7       29.84F
DALHART        CLEAR     47  35  63 SE12      29.78F
DUMAS          CLEAR     44  28  54 SE10      29.79F
GUYMON         CLEAR     42  31  64 E7        29.81F
HEREFORD       PTCLDY    53  32  44 S12G20    29.81F
PAMPA          CLEAR     50  34  53 S13       29.83S
PERRYTON       CLEAR     44  41  89 SE9       29.82F
$$

TXZ026-029-035-045-048-260900-
SOUTHERN PANHANDLE/SOUTH PLAINS/ROLLING PLAINS

CITY           SKY/WX    TMP DP  RH WIND       PRES   REMARKS
CHILDRESS      CLEAR     53  37  54 SE9       29.84S
SEMINOLE       CLEAR     50  28  43 CALM      29.83F
LUBBOCK        CLEAR     53  34  48 SE12      29.82F
PLAINVIEW      CLEAR     44  31  60 S8        29.81F
SNYDER         CLEAR     57  37  46 SE10      29.84F
$$

TXZ052-054-060>062-072-078-127-140-154-169-260900-
PERMIAN BASIN/CONCHO VALLEY/BIG COUNTRY/EDWARDS PLATEAU

CITY           SKY/WX    TMP DP  RH WIND       PRES   REMARKS
ABILENE        CLEAR     55  41  59 SE12      29.84F
BIG SPRING     CLEAR     58  30  34 SE9       29.84F
JUNCTION       CLEAR     46  36  68 NW5       29.87F
MIDLAND        CLEAR     59  27  29 S7        29.81F
ODESSA         CLEAR     64  27  24 S15       29.82F
SAN ANGELO     PTCLDY    59  32  36 S9        29.83F
SONORA         PTCLDY    61  37  41 S7        29.90F HAZE
WINK           CLEAR     57  28  33 SE6       29.79F
$$

TXZ055-058-074-075-080-082-260900-
FAR WEST/SOUTHWEST MOUNTAINS/TRANS PECOS

CITY           SKY/WX    TMP DP  RH WIND       PRES   REMARKS
ALPINE         CLEAR     61  24  24 W6        29.96R
DRYDEN           N/A     59  35  40 N7        29.82F
EL PASO        CLOUDY    66  21  18 NW16G24   29.90R
FORT STOCKTON  CLEAR     62  33  33 S16       29.81F
GUADALUPE PASS   N/A    N/A N/A N/A MISG        N/A
MARFA          CLEAR     41  14  33 NW10      29.95R
PECOS          CLEAR     56  26  31 NW6G21    29.80R
PRESIDIO       FAIR      66  16  14 N8        29.84R
$$

TXZ014-016-019-021>030-083-260900
TEXAS TECH WEST TEXAS MESONET/TEXAS PANHANDLE/NORTHERN SOUTH PLAINS

CITY           SKY/WX    TMP DP  RH WIND       PRES   REMARKS
ABERNATHY 5ENE   N/A     51  33  51 S13       29.83F
AMARILLO 9NNE    N/A     44  31  59 E12       29.80F
AMARILLO 7SSE    N/A     49  31  48 S9        29.83F
AMHERST 1NE      N/A     45  28  50 S7        29.82F
BOOTLEG 11WNW    N/A     42  27  54 S8        29.83F
CANADIAN 6E      N/A     43  41  93 E10       29.82F
CAPROCK CYN SP   N/A     47  35  62 SW8       29.83F
CHILDRESS 2NNE   N/A     49  37  63 SE10      29.83S
CLARENDON 2WSW   N/A     51  34  51 SE12      29.83F
CLAUDE 12SW      N/A     50  30  45 SE9       29.82F
DIMMITT 2NE      N/A     47  31  54 S10       29.83S
FLOYDADA 2NNE    N/A     46  32  57 S9        29.83F
FRIONA 2NE       N/A     43  28  56 SE5       29.82F
GOODLETT 3W      N/A     51  38  61 SE7       29.82F
HART 3N          N/A     46  32  58 SE8       29.82F
HEREFORD 2NW     N/A     51  28  40 S10       29.81S
MCLEAN 1E        N/A     49  34  54 SE8       29.83S
MEMPHIS 1NE      N/A     46  36  68 N2        29.84S
MULESHOE 2SSW    N/A     53  27  36 S16       29.81F
OLTON 6S         N/A     42  29  58 S8        29.82F
PALO DURO SP     N/A     54  30  40 SE10      29.83F
PAMPA 2E         N/A     46  34  63 SE13      29.83S
PLAINVIEW 1S     N/A     51  32  49 SE9       29.82F
SILVERTON 7ESE   N/A     49  31  50 SE9       29.84S
TULIA 2ENE       N/A     47  33  60 S8        29.83S
TURKEY 2WSW      N/A     47  36  66 S7        29.82F
UMBARGER 3NNE    N/A     53  31  43 S16       29.81F
$$

TXZ033>036-039>041-045>048-260900
TEXAS TECH WEST TEXAS MESONET/SOUTH PLAINS

CITY           SKY/WX    TMP DP  RH WIND       PRES   REMARKS
AIKEN 3WSW       N/A     48  31  50 SE10      29.84F
ANTON 6SSW       N/A     46  27  48 SE6       29.83S
BROWNFIELD 2S    N/A     47  28  47 SE8       29.83S
DENVR CTY 7WNW   N/A     49  27  42 S9        29.83S
GAIL 2ESE        N/A     51  35  54 E2        29.83S
LAMESA 2SE       N/A     50  29  45 SE3       29.83F
LEVELLAND 4S     N/A     48  25  39 S8        29.83F
LUBBOCK 3WNW     N/A     53  31  43 SE7       29.83F
MORTON 1ENE      N/A     50  26  39 S9        29.82F
ODONNELL 1N      N/A     51  28  40 SE7       29.84S
PLAINS 3N        N/A     48  27  44 SE8       29.83S
RALLS 1SE        N/A     49  31  49 SE12      29.85S
REESE CENTER     N/A     47  28  47 S8        29.83S
SEAGRAVES 1SW    N/A     47  28  47 S7        29.83S
SEMINOLE 2NNE    N/A     48  29  48 S7        29.83S
SLATON 2NE       N/A     49  32  51 SE8       29.84F
SNYDER 3E        N/A     55  36  49 SE12      29.83F
SUNDOWN 8SW      N/A     45  27  49 SE8       29.83F
TAHOKA 3NNE      N/A     46  28  50 SE9       29.83F
WOLFFORTH 6SSW   N/A     49  26  41 S8        29.84S
$$

TXZ031-032-036>038-042>044-260900-
TEXAS TECH WEST TEXAS MESONET/ROLLING PLAINS

CITY           SKY/WX    TMP DP  RH WIND       PRES   REMARKS
ASPERMONT 3NE    N/A     57  37  46 SE10      29.83F
FLUVANNA 3WNW    N/A     55  33  43 SE13      29.84S
GUTHRIE 10WSW    N/A     50  35  57 SE6       29.82F
HASKELL 1NW      N/A     58  38  48 SE8       29.84S
JAYTON 1SSE      N/A     52  37  56 SE3       29.83S
KNOX CITY 3NW    N/A     53  38  57 SE8       29.84S
LK A HENRY 1NW   N/A     58  33  38 SE8       29.84R
NORTHFIELD 1S    N/A     51  38  60 S9        29.83S
ODELL 4ENE       N/A     51  41  69 E8        29.85S
PADUCAH 10SW     N/A     48  38  67 S9        29.83F
POST 1NE         N/A     56  34  44 SE6       29.84S
RRING SPRGS 3N   N/A     45  35  69 S9        29.83F
SEYMOUR 3NW      N/A     56  41  58 SE8       29.84S
SPUR 1W          N/A     44  29  54 SE2       29.83S
WEINERT 2NNE     N/A     54  39  57 SE10      29.84F
WHITE RVR 6NE    N/A     54  31  42 S5        29.84S
$$

TXZ052-054-060>062-072-078-127-140-154-169-260900-
TEXAS TECH WEST TEXAS MESONET/PERMIAN BASIN/
CONCHO VALLEY/BIG COUNTRY/EDWARDS PLATEAU

CITY           SKY/WX    TMP DP  RH WIND       PRES   REMARKS
COYANOSA 2N      N/A     63  31  30 SE10      29.79F
JUNCTION 1SSW    N/A     44  38  80 S2        29.88F
MERTZON 3NNE     N/A     57  33  39 S6        29.85F
SAN ANGELO 7NW   N/A     51  34  51 E5        29.84F
STRLNG CT 4WSW   N/A     60  29  32 SE10      29.84F
ST LAWRNCE 5SW   N/A     59  27  30 S12       29.83F
SWEETWATR 11SW   N/A     59  38  45 SE15      29.85F
WALL 1E          N/A     59  31  35 S9        29.85F
$$

TXZ055-058-074-075-080-082-260900-
TEXAS TECH WEST TEXAS MESONET/FAR WEST/SOUTHWEST MOUNTAINS/TRANS PECOS

CITY           SKY/WX    TMP DP  RH WIND       PRES   REMARKS
PRSMN GAP BBNP   N/A     64  31  28 NE10      29.84F
GUADLPE MTN NP   N/A     62  10  13 W24       29.91F
$$



USA.gov is the U.S. government's official web portal to all federal, state and local government web resources and services.